contact:dominique.lefevre@mio.osupytheas.fr, maurice.libes@osupytheas.fr, didier.mallarino@osupytheas.fr
Project:EMSO http://www.emso-fr.org/EMSO-France
Depth: 2436.0 m
Title:EMSO Ligure Ouest : Data MII capteur MICROCAT
DateTime_Computer,Latitude,Longitude,Temperature,Conductivity,Pressure,DateTime_Instrument
DateTime_Computer,Latitude,Longitude,degC,S m-1,dbar,DateTime_Instrument
2023-04-08T00:02:48Z,42.805,6.029,13.3030,4.60140,2470.646,2023-4-08T02:05:41Z
2023-04-08T00:05:52Z,42.805,6.029,13.3028,4.60128,2470.646,2023-4-08T02:08:44Z
2023-04-08T00:08:55Z,42.805,6.029,13.3039,4.60137,2470.624,2023-4-08T02:11:47Z
2023-04-08T00:11:58Z,42.805,6.029,13.3028,4.60120,2470.656,2023-4-08T02:14:50Z
2023-04-08T00:15:01Z,42.805,6.029,13.3039,4.60123,2470.646,2023-4-08T02:17:53Z
2023-04-08T00:18:04Z,42.805,6.029,13.3040,4.60126,2470.661,2023-4-08T02:20:57Z
2023-04-08T00:21:07Z,42.805,6.029,13.3033,4.60150,2470.637,2023-4-08T02:24:00Z
2023-04-08T00:24:10Z,42.805,6.029,13.3043,4.60133,2470.661,2023-4-08T02:27:03Z
2023-04-08T00:27:13Z,42.805,6.029,13.3031,4.60131,2470.637,2023-4-08T02:30:06Z
2023-04-08T00:30:16Z,42.805,6.029,13.3026,4.60116,2470.61,2023-4-08T02:33:09Z
2023-04-08T00:33:19Z,42.805,6.029,13.3034,4.60139,2470.646,2023-4-08T02:36:12Z
2023-04-08T00:36:22Z,42.805,6.029,13.3033,4.60140,2470.624,2023-4-08T02:39:15Z
2023-04-08T00:39:25Z,42.805,6.029,13.3029,4.60137,2470.6,2023-4-08T02:42:18Z
2023-04-08T00:42:28Z,42.805,6.029,13.3024,4.60121,2470.614,2023-4-08T02:45:21Z
2023-04-08T00:45:32Z,42.805,6.029,13.3034,4.60117,2470.624,2023-4-08T02:48:24Z
2023-04-08T00:48:35Z,42.805,6.029,13.3028,4.60121,2470.637,2023-4-08T02:51:27Z
2023-04-08T00:51:38Z,42.805,6.029,13.3031,4.60121,2470.6,2023-4-08T02:54:30Z
2023-04-08T00:54:41Z,42.805,6.029,13.3035,4.60133,2470.637,2023-4-08T02:57:33Z
2023-04-08T00:57:44Z,42.805,6.029,13.3035,4.60125,2470.614,2023-4-08T03:00:37Z
2023-04-08T01:00:47Z,42.805,6.029,13.3031,4.60119,2470.624,2023-4-08T03:03:40Z
2023-04-08T01:03:50Z,42.805,6.029,13.3029,4.60120,2470.614,2023-4-08T03:06:43Z
2023-04-08T01:06:53Z,42.805,6.029,13.3035,4.60127,2470.577,2023-4-08T03:09:46Z
2023-04-08T01:09:56Z,42.805,6.029,13.3025,4.60114,2470.637,2023-4-08T03:12:49Z
2023-04-08T01:12:59Z,42.805,6.029,13.3028,4.60121,2470.614,2023-4-08T03:15:52Z
2023-04-08T01:16:02Z,42.805,6.029,13.3033,4.60126,2470.6,2023-4-08T03:18:55Z
2023-04-08T01:19:05Z,42.805,6.029,13.3027,4.60099,2470.6,2023-4-08T03:21:58Z
2023-04-08T01:22:08Z,42.805,6.029,13.3037,4.60115,2470.6,2023-4-08T03:25:01Z
2023-04-08T01:25:12Z,42.805,6.029,13.3036,4.60113,2470.614,2023-4-08T03:28:04Z
2023-04-08T01:28:15Z,42.805,6.029,13.3031,4.60114,2470.614,2023-4-08T03:31:07Z
2023-04-08T01:31:18Z,42.805,6.029,13.3034,4.60117,2470.577,2023-4-08T03:34:10Z
2023-04-08T01:34:21Z,42.805,6.029,13.3034,4.60119,2470.591,2023-4-08T03:37:13Z
2023-04-08T01:37:24Z,42.805,6.029,13.3036,4.60110,2470.577,2023-4-08T03:40:16Z
2023-04-08T01:40:27Z,42.805,6.029,13.3031,4.60117,2470.591,2023-4-08T03:43:20Z
2023-04-08T01:43:30Z,42.805,6.029,13.3023,4.60110,2470.591,2023-4-08T03:46:23Z
2023-04-08T01:46:33Z,42.805,6.029,13.3029,4.60111,2470.591,2023-4-08T03:49:26Z
2023-04-08T01:49:36Z,42.805,6.029,13.3027,4.60095,2470.6,2023-4-08T03:52:29Z
2023-04-08T01:52:39Z,42.805,6.029,13.3031,4.60106,2470.577,2023-4-08T03:55:32Z
2023-04-08T01:55:42Z,42.805,6.029,13.3029,4.60114,2470.567,2023-4-08T03:58:35Z
2023-04-08T01:58:45Z,42.805,6.029,13.3025,4.60104,2470.591,2023-4-08T04:01:38Z
2023-04-08T02:01:48Z,42.805,6.029,13.3028,4.60106,2470.614,2023-4-08T04:04:41Z
2023-04-08T02:04:51Z,42.805,6.029,13.3036,4.60111,2470.591,2023-4-08T04:07:44Z
2023-04-08T02:07:55Z,42.805,6.029,13.3033,4.60103,2470.567,2023-4-08T04:10:47Z
2023-04-08T02:10:58Z,42.805,6.029,13.3043,4.60107,2470.591,2023-4-08T04:13:50Z
2023-04-08T02:14:01Z,42.805,6.029,13.3027,4.60103,2470.567,2023-4-08T04:16:53Z
2023-04-08T02:17:04Z,42.805,6.029,13.3029,4.60097,2470.577,2023-4-08T04:19:56Z
2023-04-08T02:20:07Z,42.805,6.029,13.3032,4.60097,2470.577,2023-4-08T04:23:00Z
2023-04-08T02:23:10Z,42.805,6.029,13.3024,4.60093,2470.591,2023-4-08T04:26:03Z
2023-04-08T02:26:13Z,42.805,6.029,13.3026,4.60097,2470.6,2023-4-08T04:29:06Z
2023-04-08T02:29:16Z,42.805,6.029,13.3030,4.60094,2470.553,2023-4-08T04:32:09Z
2023-04-08T02:32:19Z,42.805,6.029,13.3027,4.60094,2470.577,2023-4-08T04:35:12Z
2023-04-08T02:35:22Z,42.805,6.029,13.3031,4.60098,2470.577,2023-4-08T04:38:15Z
2023-04-08T02:38:25Z,42.805,6.029,13.3027,4.60095,2470.544,2023-4-08T04:41:18Z
2023-04-08T02:41:28Z,42.805,6.029,13.3023,4.60091,2470.577,2023-4-08T04:44:21Z
2023-04-08T02:44:31Z,42.805,6.029,13.3031,4.60091,2470.577,2023-4-08T04:47:24Z
2023-04-08T02:47:35Z,42.805,6.029,13.3021,4.60096,2470.577,2023-4-08T04:50:27Z
2023-04-08T02:50:38Z,42.805,6.029,13.3026,4.60093,2470.53,2023-4-08T04:53:30Z
2023-04-08T02:53:41Z,42.805,6.029,13.3023,4.60096,2470.577,2023-4-08T04:56:33Z
2023-04-08T02:56:44Z,42.805,6.029,13.3027,4.60099,2470.567,2023-4-08T04:59:36Z
2023-04-08T02:59:47Z,42.805,6.029,13.3028,4.60096,2470.544,2023-4-08T05:02:40Z
2023-04-08T03:02:50Z,42.805,6.029,13.3034,4.60104,2470.53,2023-4-08T05:05:43Z
2023-04-08T03:05:53Z,42.805,6.029,13.3029,4.60092,2470.591,2023-4-08T05:08:46Z
2023-04-08T03:08:56Z,42.805,6.029,13.3029,4.60102,2470.553,2023-4-08T05:11:49Z
2023-04-08T03:11:59Z,42.805,6.029,13.3024,4.60095,2470.553,2023-4-08T05:14:52Z
2023-04-08T03:15:02Z,42.805,6.029,13.3028,4.60094,2470.567,2023-4-08T05:17:55Z
2023-04-08T03:18:05Z,42.805,6.029,13.3026,4.60096,2470.553,2023-4-08T05:20:58Z
2023-04-08T03:21:08Z,42.805,6.029,13.3027,4.60094,2470.577,2023-4-08T05:24:01Z
2023-04-08T03:24:11Z,42.805,6.029,13.3029,4.60112,2470.567,2023-4-08T05:27:04Z
2023-04-08T03:27:14Z,42.805,6.029,13.3029,4.60099,2470.577,2023-4-08T05:30:07Z
2023-04-08T03:30:18Z,42.805,6.029,13.3029,4.60106,2470.6,2023-4-08T05:33:10Z
2023-04-08T03:33:21Z,42.805,6.029,13.3021,4.60102,2470.553,2023-4-08T05:36:13Z
2023-04-08T03:36:24Z,42.805,6.029,13.3026,4.60099,2470.553,2023-4-08T05:39:16Z
2023-04-08T03:39:27Z,42.805,6.029,13.3029,4.60102,2470.544,2023-4-08T05:42:19Z
2023-04-08T03:42:30Z,42.805,6.029,13.3028,4.60107,2470.577,2023-4-08T05:45:23Z
2023-04-08T03:45:33Z,42.805,6.029,13.3024,4.60102,2470.6,2023-4-08T05:48:26Z
2023-04-08T03:48:36Z,42.805,6.029,13.3024,4.60097,2470.553,2023-4-08T05:51:29Z
2023-04-08T03:51:39Z,42.805,6.029,13.3031,4.60096,2470.567,2023-4-08T05:54:32Z
2023-04-08T03:54:42Z,42.805,6.029,13.3030,4.60099,2470.567,2023-4-08T05:57:35Z
2023-04-08T03:57:45Z,42.805,6.029,13.3021,4.60096,2470.553,2023-4-08T06:00:38Z
2023-04-08T04:00:48Z,42.805,6.029,13.3029,4.60110,2470.577,2023-4-08T06:03:41Z
2023-04-08T04:03:51Z,42.805,6.029,13.3024,4.60094,2470.577,2023-4-08T06:06:44Z
2023-04-08T04:06:54Z,42.805,6.029,13.3023,4.60087,2470.577,2023-4-08T06:09:47Z
2023-04-08T04:09:58Z,42.805,6.029,13.3026,4.60108,2470.6,2023-4-08T06:12:50Z
2023-04-08T04:13:01Z,42.805,6.029,13.3024,4.60100,2470.586,2023-4-08T06:15:53Z
2023-04-08T04:16:04Z,42.805,6.029,13.3028,4.60101,2470.553,2023-4-08T06:18:56Z
2023-04-08T04:19:07Z,42.805,6.029,13.3024,4.60110,2470.6,2023-4-08T06:21:59Z
2023-04-08T04:22:10Z,42.805,6.029,13.3028,4.60103,2470.624,2023-4-08T06:25:03Z
2023-04-08T04:25:13Z,42.805,6.029,13.3029,4.60105,2470.6,2023-4-08T06:28:06Z
2023-04-08T04:28:16Z,42.805,6.029,13.3031,4.60108,2470.6,2023-4-08T06:31:09Z
2023-04-08T04:31:19Z,42.805,6.029,13.3024,4.60108,2470.577,2023-4-08T06:34:12Z
2023-04-08T04:34:22Z,42.805,6.029,13.3031,4.60115,2470.6,2023-4-08T06:37:15Z
2023-04-08T04:37:25Z,42.805,6.029,13.3024,4.60101,2470.637,2023-4-08T06:40:18Z
2023-04-08T04:40:28Z,42.805,6.029,13.3031,4.60102,2470.624,2023-4-08T06:43:21Z
2023-04-08T04:43:31Z,42.805,6.029,13.3025,4.60096,2470.614,2023-4-08T06:46:24Z
2023-04-08T04:46:34Z,42.805,6.029,13.3021,4.60089,2470.6,2023-4-08T06:49:27Z
2023-04-08T04:49:37Z,42.805,6.029,13.3030,4.60091,2470.624,2023-4-08T06:52:30Z
2023-04-08T04:52:41Z,42.805,6.029,13.3029,4.60092,2470.637,2023-4-08T06:55:33Z
2023-04-08T04:55:44Z,42.805,6.029,13.3026,4.60085,2470.624,2023-4-08T06:58:36Z
2023-04-08T04:58:47Z,42.805,6.029,13.3030,4.60106,2470.646,2023-4-08T07:01:40Z
2023-04-08T05:01:50Z,42.805,6.029,13.3026,4.60098,2470.661,2023-4-08T07:04:43Z
2023-04-08T05:04:53Z,42.805,6.029,13.3025,4.60104,2470.624,2023-4-08T07:07:46Z
2023-04-08T05:07:56Z,42.805,6.029,13.3023,4.60099,2470.633,2023-4-08T07:10:49Z
2023-04-08T05:10:59Z,42.805,6.029,13.3031,4.60107,2470.646,2023-4-08T07:13:52Z
2023-04-08T05:14:02Z,42.805,6.029,13.3024,4.60092,2470.661,2023-4-08T07:16:55Z
2023-04-08T05:17:05Z,42.805,6.029,13.3031,4.60094,2470.624,2023-4-08T07:19:58Z
2023-04-08T05:20:08Z,42.805,6.029,13.3026,4.60099,2470.661,2023-4-08T07:23:01Z
2023-04-08T05:23:11Z,42.805,6.029,13.3028,4.60099,2470.684,2023-4-08T07:26:04Z
2023-04-08T05:26:14Z,42.805,6.029,13.3026,4.60094,2470.646,2023-4-08T07:29:07Z
2023-04-08T05:29:17Z,42.805,6.029,13.3026,4.60114,2470.646,2023-4-08T07:32:10Z
2023-04-08T05:32:21Z,42.805,6.029,13.3024,4.60095,2470.646,2023-4-08T07:35:13Z
2023-04-08T05:35:24Z,42.805,6.029,13.3028,4.60095,2470.661,2023-4-08T07:38:16Z
2023-04-08T05:38:27Z,42.805,6.029,13.3036,4.60122,2470.661,2023-4-08T07:41:19Z
2023-04-08T05:41:30Z,42.805,6.029,13.3029,4.60107,2470.624,2023-4-08T07:44:23Z
2023-04-08T05:44:33Z,42.805,6.029,13.3029,4.60113,2470.707,2023-4-08T07:47:26Z
2023-04-08T05:47:36Z,42.805,6.029,13.3026,4.60107,2470.637,2023-4-08T07:50:29Z
2023-04-08T05:50:39Z,42.805,6.029,13.3026,4.60087,2470.67,2023-4-08T07:53:32Z
2023-04-08T05:53:42Z,42.805,6.029,13.3025,4.60105,2470.67,2023-4-08T07:56:35Z
2023-04-08T05:56:45Z,42.805,6.029,13.3027,4.60102,2470.717,2023-4-08T07:59:38Z
2023-04-08T05:59:48Z,42.805,6.029,13.3025,4.60097,2470.707,2023-4-08T08:02:41Z
2023-04-08T06:02:51Z,42.805,6.029,13.3029,4.60099,2470.67,2023-4-08T08:05:44Z
2023-04-08T06:05:54Z,42.805,6.029,13.3030,4.60090,2470.693,2023-4-08T08:08:47Z
2023-04-08T06:08:57Z,42.805,6.029,13.3031,4.60121,2470.693,2023-4-08T08:11:50Z
2023-04-08T06:12:01Z,42.805,6.029,13.3031,4.60108,2470.693,2023-4-08T08:14:53Z
2023-04-08T06:15:04Z,42.805,6.029,13.3027,4.60113,2470.693,2023-4-08T08:17:56Z
2023-04-08T06:18:07Z,42.805,6.029,13.3029,4.60119,2470.693,2023-4-08T08:20:59Z
2023-04-08T06:21:10Z,42.805,6.029,13.3033,4.60108,2470.693,2023-4-08T08:24:03Z
2023-04-08T06:24:13Z,42.805,6.029,13.3033,4.60110,2470.707,2023-4-08T08:27:06Z
2023-04-08T06:27:16Z,42.805,6.029,13.3026,4.60096,2470.707,2023-4-08T08:30:09Z
2023-04-08T06:30:18Z,42.805,6.029,13.3031,4.60107,2470.73,2023-4-08T08:33:11Z
2023-04-08T06:33:21Z,42.805,6.029,13.3029,4.60096,2470.717,2023-4-08T08:36:14Z
2023-04-08T06:36:25Z,42.805,6.029,13.3022,4.60097,2470.707,2023-4-08T08:39:17Z
2023-04-08T06:39:28Z,42.805,6.029,13.3026,4.60096,2470.717,2023-4-08T08:42:20Z
2023-04-08T06:42:31Z,42.805,6.029,13.3024,4.60104,2470.73,2023-4-08T08:45:23Z
2023-04-08T06:45:34Z,42.805,6.029,13.3025,4.60102,2470.717,2023-4-08T08:48:27Z
2023-04-08T06:48:37Z,42.805,6.029,13.3029,4.60101,2470.73,2023-4-08T08:51:30Z
2023-04-08T06:51:40Z,42.805,6.029,13.3025,4.60094,2470.74,2023-4-08T08:54:33Z
2023-04-08T06:54:43Z,42.805,6.029,13.3022,4.60092,2470.777,2023-4-08T08:57:36Z
2023-04-08T06:57:46Z,42.805,6.029,13.3032,4.60101,2470.777,2023-4-08T09:00:39Z
2023-04-08T07:00:49Z,42.805,6.029,13.3024,4.60101,2470.74,2023-4-08T09:03:42Z
2023-04-08T07:03:52Z,42.805,6.029,13.3026,4.60109,2470.717,2023-4-08T09:06:45Z
2023-04-08T07:06:55Z,42.805,6.029,13.3027,4.60101,2470.74,2023-4-08T09:09:48Z
2023-04-08T07:09:58Z,42.805,6.029,13.3031,4.60105,2470.717,2023-4-08T09:12:51Z
2023-04-08T07:13:01Z,42.805,6.029,13.3030,4.60107,2470.717,2023-4-08T09:15:54Z
2023-04-08T07:16:04Z,42.805,6.029,13.3031,4.60107,2470.74,2023-4-08T09:18:57Z
2023-04-08T07:19:08Z,42.805,6.029,13.3025,4.60109,2470.754,2023-4-08T09:22:00Z
2023-04-08T07:22:11Z,42.805,6.029,13.3026,4.60119,2470.693,2023-4-08T09:25:03Z
2023-04-08T07:25:14Z,42.805,6.029,13.3034,4.60118,2470.74,2023-4-08T09:28:07Z
2023-04-08T07:28:17Z,42.805,6.029,13.3031,4.60112,2470.763,2023-4-08T09:31:10Z
2023-04-08T07:31:20Z,42.805,6.029,13.3031,4.60097,2470.754,2023-4-08T09:34:13Z
2023-04-08T07:34:23Z,42.805,6.029,13.3028,4.60094,2470.787,2023-4-08T09:37:16Z
2023-04-08T07:37:26Z,42.805,6.029,13.3031,4.60096,2470.763,2023-4-08T09:40:19Z
2023-04-08T07:40:29Z,42.805,6.029,13.3028,4.60114,2470.763,2023-4-08T09:43:22Z
2023-04-08T07:43:32Z,42.805,6.029,13.3026,4.60107,2470.763,2023-4-08T09:46:25Z
2023-04-08T07:46:35Z,42.805,6.029,13.3033,4.60099,2470.717,2023-4-08T09:49:28Z
2023-04-08T07:49:38Z,42.805,6.029,13.3026,4.60099,2470.763,2023-4-08T09:52:31Z
2023-04-08T07:52:41Z,42.805,6.029,13.3025,4.60094,2470.763,2023-4-08T09:55:34Z
2023-04-08T07:55:44Z,42.805,6.029,13.3021,4.60088,2470.763,2023-4-08T09:58:37Z
2023-04-08T07:58:47Z,42.805,6.029,13.3024,4.60106,2470.754,2023-4-08T10:01:40Z
2023-04-08T08:01:51Z,42.805,6.029,13.3029,4.60097,2470.754,2023-4-08T10:04:43Z
2023-04-08T08:04:54Z,42.805,6.029,13.3028,4.60098,2470.754,2023-4-08T10:07:47Z
2023-04-08T08:07:57Z,42.805,6.029,13.3036,4.60114,2470.777,2023-4-08T10:10:50Z
2023-04-08T08:11:00Z,42.805,6.029,13.3024,4.60107,2470.754,2023-4-08T10:13:53Z
2023-04-08T08:14:03Z,42.805,6.029,13.3030,4.60108,2470.777,2023-4-08T10:16:56Z
2023-04-08T08:17:06Z,42.805,6.029,13.3031,4.60119,2470.763,2023-4-08T10:19:59Z
2023-04-08T08:20:09Z,42.805,6.029,13.3034,4.60108,2470.777,2023-4-08T10:23:02Z
2023-04-08T08:23:12Z,42.805,6.029,13.3034,4.60099,2470.763,2023-4-08T10:26:05Z
2023-04-08T08:26:15Z,42.805,6.029,13.3042,4.60117,2470.754,2023-4-08T10:29:08Z
2023-04-08T08:29:18Z,42.805,6.029,13.3028,4.60103,2470.763,2023-4-08T10:32:11Z
2023-04-08T08:32:21Z,42.805,6.029,13.3043,4.60117,2470.777,2023-4-08T10:35:14Z
2023-04-08T08:35:24Z,42.805,6.029,13.3029,4.60119,2470.763,2023-4-08T10:38:17Z
2023-04-08T08:38:28Z,42.805,6.029,13.3030,4.60106,2470.74,2023-4-08T10:41:20Z
2023-04-08T08:41:31Z,42.805,6.029,13.3028,4.60104,2470.777,2023-4-08T10:44:23Z
2023-04-08T08:44:34Z,42.805,6.029,13.3037,4.60117,2470.777,2023-4-08T10:47:27Z
2023-04-08T08:47:37Z,42.805,6.029,13.3026,4.60103,2470.777,2023-4-08T10:50:30Z
2023-04-08T08:50:40Z,42.805,6.029,13.3031,4.60125,2470.74,2023-4-08T10:53:33Z
2023-04-08T08:53:43Z,42.805,6.029,13.3038,4.60117,2470.763,2023-4-08T10:56:36Z
2023-04-08T08:56:46Z,42.805,6.029,13.3037,4.60107,2470.754,2023-4-08T10:59:39Z
2023-04-08T08:59:49Z,42.805,6.029,13.3031,4.60104,2470.763,2023-4-08T11:02:42Z
2023-04-08T09:02:52Z,42.805,6.029,13.3036,4.60113,2470.717,2023-4-08T11:05:45Z
2023-04-08T09:05:55Z,42.805,6.029,13.3040,4.60118,2470.74,2023-4-08T11:08:48Z
2023-04-08T09:08:58Z,42.805,6.029,13.3039,4.60123,2470.74,2023-4-08T11:11:51Z
2023-04-08T09:12:01Z,42.805,6.029,13.3046,4.60125,2470.763,2023-4-08T11:14:54Z
2023-04-08T09:15:04Z,42.805,6.029,13.3036,4.60122,2470.726,2023-4-08T11:17:57Z
2023-04-08T09:18:08Z,42.805,6.029,13.3031,4.60106,2470.74,2023-4-08T11:21:00Z
2023-04-08T09:21:11Z,42.805,6.029,13.3032,4.60087,2470.74,2023-4-08T11:24:04Z
2023-04-08T09:24:14Z,42.805,6.029,13.3037,4.60112,2470.754,2023-4-08T11:27:07Z
2023-04-08T09:27:17Z,42.805,6.029,13.3046,4.60127,2470.777,2023-4-08T11:30:10Z
2023-04-08T09:30:20Z,42.805,6.029,13.3029,4.60110,2470.74,2023-4-08T11:33:13Z
2023-04-08T09:33:23Z,42.805,6.029,13.3024,4.60107,2470.754,2023-4-08T11:36:16Z
2023-04-08T09:36:26Z,42.805,6.029,13.3042,4.60120,2470.74,2023-4-08T11:39:19Z
2023-04-08T09:39:29Z,42.805,6.029,13.3024,4.60139,2470.754,2023-4-08T11:42:22Z
2023-04-08T09:42:32Z,42.805,6.029,13.3037,4.60139,2470.74,2023-4-08T11:45:25Z
2023-04-08T09:45:35Z,42.805,6.029,13.3052,4.60140,2470.777,2023-4-08T11:48:28Z
2023-04-08T09:48:38Z,42.805,6.029,13.3026,4.60119,2470.74,2023-4-08T11:51:31Z
2023-04-08T09:51:41Z,42.805,6.029,13.3034,4.60106,2470.717,2023-4-08T11:54:34Z
2023-04-08T09:54:45Z,42.805,6.029,13.3034,4.60141,2470.754,2023-4-08T11:57:37Z
2023-04-08T09:57:48Z,42.805,6.029,13.3048,4.60134,2470.717,2023-4-08T12:00:40Z
2023-04-08T10:00:51Z,42.805,6.029,13.3049,4.60140,2470.73,2023-4-08T12:03:44Z
2023-04-08T10:03:54Z,42.805,6.029,13.3039,4.60119,2470.717,2023-4-08T12:06:47Z
2023-04-08T10:06:57Z,42.805,6.029,13.3037,4.60112,2470.717,2023-4-08T12:09:50Z
2023-04-08T10:10:00Z,42.805,6.029,13.3034,4.60119,2470.707,2023-4-08T12:12:53Z
2023-04-08T10:13:03Z,42.805,6.029,13.3040,4.60116,2470.707,2023-4-08T12:15:56Z
2023-04-08T10:16:06Z,42.805,6.029,13.3045,4.60126,2470.717,2023-4-08T12:18:59Z
2023-04-08T10:19:09Z,42.805,6.029,13.3049,4.60140,2470.717,2023-4-08T12:22:02Z
2023-04-08T10:22:12Z,42.805,6.029,13.3043,4.60140,2470.717,2023-4-08T12:25:05Z
2023-04-08T10:25:15Z,42.805,6.029,13.3030,4.60147,2470.74,2023-4-08T12:28:08Z
2023-04-08T10:28:18Z,42.805,6.029,13.3042,4.60127,2470.693,2023-4-08T12:31:11Z
2023-04-08T10:31:21Z,42.805,6.029,13.3041,4.60122,2470.73,2023-4-08T12:34:14Z
2023-04-08T10:34:25Z,42.805,6.029,13.3039,4.60114,2470.707,2023-4-08T12:37:17Z
2023-04-08T10:37:28Z,42.805,6.029,13.3030,4.60105,2470.717,2023-4-08T12:40:20Z
2023-04-08T10:40:31Z,42.805,6.029,13.3027,4.60108,2470.693,2023-4-08T12:43:24Z
2023-04-08T10:43:34Z,42.805,6.029,13.3034,4.60118,2470.717,2023-4-08T12:46:27Z
2023-04-08T10:46:37Z,42.805,6.029,13.3022,4.60120,2470.67,2023-4-08T12:49:30Z
2023-04-08T10:49:40Z,42.805,6.029,13.3034,4.60125,2470.693,2023-4-08T12:52:33Z
2023-04-08T10:52:43Z,42.805,6.029,13.3029,4.60097,2470.684,2023-4-08T12:55:36Z
2023-04-08T10:55:46Z,42.805,6.029,13.3041,4.60145,2470.693,2023-4-08T12:58:39Z
2023-04-08T10:58:49Z,42.805,6.029,13.3044,4.60113,2470.67,2023-4-08T13:01:42Z
2023-04-08T11:01:52Z,42.805,6.029,13.3040,4.60124,2470.707,2023-4-08T13:04:45Z
2023-04-08T11:04:55Z,42.805,6.029,13.3049,4.60127,2470.707,2023-4-08T13:07:48Z
2023-04-08T11:07:58Z,42.805,6.029,13.3039,4.60150,2470.679,2023-4-08T13:10:51Z
2023-04-08T11:11:01Z,42.805,6.029,13.3041,4.60144,2470.684,2023-4-08T13:13:54Z
2023-04-08T11:14:05Z,42.805,6.029,13.3046,4.60163,2470.661,2023-4-08T13:16:57Z
2023-04-08T11:17:08Z,42.805,6.029,13.3046,4.60120,2470.67,2023-4-08T13:20:01Z
2023-04-08T11:20:11Z,42.805,6.029,13.3041,4.60104,2470.646,2023-4-08T13:23:04Z
2023-04-08T11:23:14Z,42.805,6.029,13.3037,4.60129,2470.67,2023-4-08T13:26:07Z
2023-04-08T11:26:17Z,42.805,6.029,13.3041,4.60133,2470.67,2023-4-08T13:29:10Z
2023-04-08T11:29:20Z,42.805,6.029,13.3048,4.60125,2470.661,2023-4-08T13:32:13Z
2023-04-08T11:32:23Z,42.805,6.029,13.3032,4.60129,2470.67,2023-4-08T13:35:16Z
2023-04-08T11:35:26Z,42.805,6.029,13.3058,4.60125,2470.67,2023-4-08T13:38:19Z
2023-04-08T11:38:29Z,42.805,6.029,13.3031,4.60112,2470.646,2023-4-08T13:41:22Z
2023-04-08T11:41:32Z,42.805,6.029,13.3033,4.60135,2470.646,2023-4-08T13:44:25Z
2023-04-08T11:44:35Z,42.805,6.029,13.3041,4.60127,2470.646,2023-4-08T13:47:28Z
2023-04-08T11:47:38Z,42.805,6.029,13.3036,4.60106,2470.67,2023-4-08T13:50:31Z
2023-04-08T11:50:42Z,42.805,6.029,13.3032,4.60117,2470.646,2023-4-08T13:53:34Z
2023-04-08T11:53:45Z,42.805,6.029,13.3034,4.60122,2470.646,2023-4-08T13:56:38Z
2023-04-08T11:56:48Z,42.805,6.029,13.3039,4.60114,2470.646,2023-4-08T13:59:41Z
2023-04-08T11:59:51Z,42.805,6.029,13.3028,4.60162,2470.614,2023-4-08T14:02:44Z
2023-04-08T12:02:54Z,42.805,6.029,13.3034,4.60121,2470.624,2023-4-08T14:05:47Z
2023-04-08T12:05:57Z,42.805,6.029,13.3029,4.60129,2470.646,2023-4-08T14:08:50Z
2023-04-08T12:09:00Z,42.805,6.029,13.3032,4.60122,2470.614,2023-4-08T14:11:53Z
2023-04-08T12:12:03Z,42.805,6.029,13.3042,4.60123,2470.624,2023-4-08T14:14:56Z
2023-04-08T12:15:06Z,42.805,6.029,13.3045,4.60144,2470.637,2023-4-08T14:17:59Z
2023-04-08T12:18:09Z,42.805,6.029,13.3030,4.60144,2470.624,2023-4-08T14:21:02Z
2023-04-08T12:21:12Z,42.805,6.029,13.3039,4.60137,2470.661,2023-4-08T14:24:05Z
2023-04-08T12:24:15Z,42.805,6.029,13.3040,4.60132,2470.684,2023-4-08T14:27:08Z
2023-04-08T12:27:18Z,42.805,6.029,13.3034,4.60144,2470.637,2023-4-08T14:30:11Z
2023-04-08T12:30:22Z,42.805,6.029,13.3034,4.60156,2470.6,2023-4-08T14:33:14Z
2023-04-08T12:33:25Z,42.805,6.029,13.3030,4.60175,2470.661,2023-4-08T14:36:18Z
2023-04-08T12:36:28Z,42.805,6.029,13.3028,4.60149,2470.6,2023-4-08T14:39:21Z
2023-04-08T12:39:31Z,42.805,6.029,13.3034,4.60157,2470.624,2023-4-08T14:42:24Z
2023-04-08T12:42:34Z,42.805,6.029,13.3033,4.60147,2470.637,2023-4-08T14:45:27Z
2023-04-08T12:45:37Z,42.805,6.029,13.3031,4.60119,2470.614,2023-4-08T14:48:30Z
2023-04-08T12:48:40Z,42.805,6.029,13.3028,4.60125,2470.637,2023-4-08T14:51:33Z
2023-04-08T12:51:43Z,42.805,6.029,13.3036,4.60125,2470.577,2023-4-08T14:54:36Z
2023-04-08T12:54:46Z,42.805,6.029,13.3042,4.60160,2470.6,2023-4-08T14:57:39Z
2023-04-08T12:57:49Z,42.805,6.029,13.3032,4.60147,2470.6,2023-4-08T15:00:42Z
2023-04-08T13:00:52Z,42.805,6.029,13.3031,4.60144,2470.577,2023-4-08T15:03:45Z
2023-04-08T13:03:55Z,42.805,6.029,13.3059,4.60155,2470.6,2023-4-08T15:06:48Z
2023-04-08T13:06:59Z,42.805,6.029,13.3035,4.60106,2470.624,2023-4-08T15:09:51Z
2023-04-08T13:10:02Z,42.805,6.029,13.3048,4.60142,2470.591,2023-4-08T15:12:55Z
2023-04-08T13:13:05Z,42.805,6.029,13.3035,4.60134,2470.6,2023-4-08T15:15:58Z
2023-04-08T13:16:08Z,42.805,6.029,13.3034,4.60155,2470.591,2023-4-08T15:19:01Z
2023-04-08T13:19:11Z,42.805,6.029,13.3034,4.60123,2470.614,2023-4-08T15:22:04Z
2023-04-08T13:22:14Z,42.805,6.029,13.3035,4.60128,2470.6,2023-4-08T15:25:07Z
2023-04-08T13:25:17Z,42.805,6.029,13.3048,4.60163,2470.553,2023-4-08T15:28:10Z
2023-04-08T13:28:20Z,42.805,6.029,13.3051,4.60178,2470.577,2023-4-08T15:31:13Z
2023-04-08T13:31:23Z,42.805,6.029,13.3060,4.60131,2470.567,2023-4-08T15:34:16Z
2023-04-08T13:34:26Z,42.805,6.029,13.3045,4.60165,2470.591,2023-4-08T15:37:19Z
2023-04-08T13:37:29Z,42.805,6.029,13.3047,4.60137,2470.624,2023-4-08T15:40:22Z
2023-04-08T13:40:32Z,42.805,6.029,13.3030,4.60130,2470.567,2023-4-08T15:43:25Z
2023-04-08T13:43:35Z,42.805,6.029,13.3043,4.60142,2470.553,2023-4-08T15:46:28Z
2023-04-08T13:46:39Z,42.805,6.029,13.3048,4.60129,2470.553,2023-4-08T15:49:32Z
2023-04-08T13:49:42Z,42.805,6.029,13.3031,4.60119,2470.567,2023-4-08T15:52:35Z
2023-04-08T13:52:45Z,42.805,6.029,13.3039,4.60140,2470.553,2023-4-08T15:55:38Z
2023-04-08T13:55:48Z,42.805,6.029,13.3037,4.60141,2470.567,2023-4-08T15:58:41Z
2023-04-08T13:58:51Z,42.805,6.029,13.3046,4.60142,2470.563,2023-4-08T16:01:44Z
2023-04-08T14:01:54Z,42.805,6.029,13.3036,4.60168,2470.567,2023-4-08T16:04:47Z
2023-04-08T14:04:57Z,42.805,6.029,13.3039,4.60141,2470.553,2023-4-08T16:07:50Z
2023-04-08T14:08:00Z,42.805,6.029,13.3045,4.60152,2470.553,2023-4-08T16:10:53Z
2023-04-08T14:11:03Z,42.805,6.029,13.3034,4.60153,2470.553,2023-4-08T16:13:56Z
2023-04-08T14:14:06Z,42.805,6.029,13.3049,4.60166,2470.553,2023-4-08T16:16:59Z
2023-04-08T14:17:09Z,42.805,6.029,13.3043,4.60145,2470.53,2023-4-08T16:20:02Z
2023-04-08T14:20:12Z,42.805,6.029,13.3046,4.60112,2470.53,2023-4-08T16:23:05Z
2023-04-08T14:23:15Z,42.805,6.029,13.3035,4.60132,2470.567,2023-4-08T16:26:08Z
2023-04-08T14:26:19Z,42.805,6.029,13.3027,4.60110,2470.577,2023-4-08T16:29:12Z
2023-04-08T14:29:22Z,42.805,6.029,13.3036,4.60125,2470.544,2023-4-08T16:32:15Z
2023-04-08T14:32:25Z,42.805,6.029,13.3031,4.60138,2470.53,2023-4-08T16:35:18Z
2023-04-08T14:35:28Z,42.805,6.029,13.3026,4.60119,2470.544,2023-4-08T16:38:21Z
2023-04-08T14:38:31Z,42.805,6.029,13.3026,4.60124,2470.567,2023-4-08T16:41:24Z
2023-04-08T14:41:34Z,42.805,6.029,13.3032,4.60114,2470.544,2023-4-08T16:44:27Z
2023-04-08T14:44:37Z,42.805,6.029,13.3030,4.60119,2470.544,2023-4-08T16:47:30Z
2023-04-08T14:47:40Z,42.805,6.029,13.3029,4.60139,2470.516,2023-4-08T16:50:33Z
2023-04-08T14:50:43Z,42.805,6.029,13.3031,4.60117,2470.544,2023-4-08T16:53:36Z
2023-04-08T14:53:46Z,42.805,6.029,13.3036,4.60134,2470.553,2023-4-08T16:56:39Z
2023-04-08T14:56:49Z,42.805,6.029,13.3033,4.60134,2470.53,2023-4-08T16:59:42Z
2023-04-08T14:59:52Z,42.805,6.029,13.3042,4.60133,2470.507,2023-4-08T17:02:45Z
2023-04-08T15:02:56Z,42.805,6.029,13.3033,4.60138,2470.53,2023-4-08T17:05:49Z
2023-04-08T15:05:59Z,42.805,6.029,13.3035,4.60141,2470.553,2023-4-08T17:08:52Z
2023-04-08T15:09:02Z,42.805,6.029,13.3038,4.60137,2470.567,2023-4-08T17:11:55Z
2023-04-08T15:12:05Z,42.805,6.029,13.3043,4.60149,2470.53,2023-4-08T17:14:58Z
2023-04-08T15:15:08Z,42.805,6.029,13.3040,4.60148,2470.544,2023-4-08T17:18:01Z